Douglas, WY

9:47 AM MST on February 27, 2017 (GMT -0700)
Converse County

Weather History for KDGW - April, 2013

Change the Weather History Date:

Sunday, April 7, 2013

  Actual Average Record
Temperature  
Mean Temperature 49 °F 42 °F  
Max Temperature 63 °F 55 °F 77 °F (2005)
Min Temperature 34 °F 28 °F 18 °F (2007)
Degree Days  
Heating Degree Days 16 24  
Month to date heating degree days 124 170  
Since 1 July heating degree days 6068 6488  
Cooling Degree Days 0 0  
Month to date cooling degree days 0 0  
Year to date cooling degree days 0 0  
Moisture  
Dew Point 26 °F    
Average Humidity 49    
Maximum Humidity 75    
Minimum Humidity 22    
Precipitation  
Precipitation 0.00 in 0.04 in 0.12 in (2006)
Month to date precipitation T 0.22  
Year to date precipitation 0.97 1.86  
Sea Level Pressure  
Sea Level Pressure 29.63 in    
Wind  
Wind Speed 12 mph (WNW)    
Max Wind Speed 31 mph    
Max Gust Speed 37 mph    
Visibility 10 miles    
Events      
T = Trace of Precipitation, MM = Missing Value Source: NWS Daily Summary

Daily Weather History Graph

Daily Weather History Graph

Search for Another Location

Airport or City:

Trip Planner

Search our weather history database for the weather conditions in past years. The results will help you decide how hot, cold, wet, or windy it might be!

Date:

Astronomy

Apr. 07, 2013 Rise Set
Actual Time 6:32 AM MDT 7:34 PM MDT
Civil Twilight 6:04 AM MDT 8:03 PM MDT
Nautical Twilight 5:29 AM MDT 8:38 PM MDT
Astronomical Twilight 4:53 AM MDT 9:14 PM MDT
Moon 4:55 AM MDT (4/7) 5:07 PM MDT (4/7)
Length of Visible Light 13h 59m
Length of Day
13h 02m
Waning Crescent, 8% of the Moon is Illuminated
Apr 7
Waning Crescent
Apr 10
New
Apr 18
First Quarter
Apr 25
Full
May 2
Last Quarter

Hourly Weather History & Observations

Time (MDT) Temp. Windchill Dew Point Humidity Pressure Visibility Wind Dir Wind Speed Gust Speed Precip Events Conditions
12:53 AM 51.1 °F - 30.0 °F 44% 29.70 in 10.0 mi WNW 21.9 mph - N/A   Overcast
1:53 AM 46.9 °F - 30.0 °F 52% 29.71 in 10.0 mi West 9.2 mph - N/A   Overcast
2:53 AM 46.0 °F - 30.0 °F 54% 29.70 in 10.0 mi Calm Calm - N/A   Overcast
3:53 AM 43.0 °F 40.3 °F 28.0 °F 56% 29.70 in 10.0 mi North 4.6 mph - N/A   Clear
4:53 AM 39.9 °F 36.7 °F 27.0 °F 60% 29.71 in 10.0 mi North 4.6 mph - N/A   Clear
5:53 AM 36.0 °F 32.1 °F 27.0 °F 70% 29.73 in 10.0 mi NNW 4.6 mph - N/A   Clear
6:53 AM 34.0 °F - 26.1 °F 73% 29.76 in 10.0 mi Calm Calm - N/A   Partly Cloudy
7:53 AM 44.1 °F 42.5 °F 28.0 °F 53% 29.74 in 10.0 mi North 3.5 mph - N/A   Clear
8:53 AM 48.0 °F - 28.9 °F 48% 29.71 in 10.0 mi NNW 3.5 mph - N/A   Clear
9:53 AM 52.0 °F - 27.0 °F 38% 29.68 in 10.0 mi WNW 10.4 mph 18.4 mph N/A   Partly Cloudy
10:53 AM 57.0 °F - 27.0 °F 32% 29.66 in 10.0 mi West 17.3 mph 26.5 mph N/A   Clear
11:53 AM 59.0 °F - 25.0 °F 27% 29.62 in 10.0 mi WNW 13.8 mph 19.6 mph N/A   Partly Cloudy
12:53 PM 59.0 °F - 24.1 °F 26% 29.60 in 10.0 mi West 18.4 mph 26.5 mph N/A   Scattered Clouds
1:53 PM 61.0 °F - 21.0 °F 21% 29.57 in 10.0 mi West 27.6 mph 33.4 mph N/A   Partly Cloudy
2:53 PM 59.0 °F - 23.0 °F 25% 29.57 in 10.0 mi WSW 18.4 mph 27.6 mph N/A   Mostly Cloudy
3:53 PM 60.1 °F - 27.0 °F 28% 29.55 in 10.0 mi SW 20.7 mph 26.5 mph N/A   Partly Cloudy
4:53 PM 59.0 °F - 26.1 °F 28% 29.55 in 10.0 mi West 21.9 mph 32.2 mph N/A   Partly Cloudy
5:53 PM 60.1 °F - 24.1 °F 25% 29.54 in 10.0 mi WSW 24.2 mph 34.5 mph N/A   Clear
6:53 PM 57.0 °F - 25.0 °F 29% 29.56 in 10.0 mi West 23.0 mph 28.8 mph N/A   Clear
7:53 PM 51.1 °F - 26.1 °F 38% 29.54 in 10.0 mi WSW 11.5 mph - N/A   Clear
8:53 PM 48.9 °F - 27.0 °F 43% 29.55 in 10.0 mi WSW 8.1 mph - N/A   Clear
9:53 PM 46.9 °F - 27.0 °F 46% 29.55 in 10.0 mi WSW 9.2 mph - N/A   Clear
10:53 PM 45.0 °F 41.2 °F 24.1 °F 44% 29.55 in 10.0 mi SW 6.9 mph - N/A   Clear
11:53 PM 46.0 °F 43.1 °F 25.0 °F 44% 29.52 in 10.0 mi WNW 5.8 mph - N/A   Partly Cloudy